Flag for United Kingdom Weather past 2 weeks in Glasgow, Scotland, United Kingdom

Now
46 °F

Light rain. Passing clouds.


Feels Like: 41 °F
Forecast: 44 / 48 °F
Wind: 12 mph from Southwest

Location: Glasgow Airport

Current Time: Dec 22, 2014 at 7:15:34 AM

Latest Report: Dec 22, 2014 at 6:50 AM


Visibility: N/A

Pressure: 29.59 "Hg

Humidity: 93%

Dew point: 45 °F

Location of GlasgowLocation

Historic Weather in Glasgow — Graph

°F

Glasgow temperature yesterday

Maximum temperature yesterday: 52 °F (at 12:20 PM)
Minimum temperature yesterday: 45 °F (at 12:50 AM)
Average temperature yesterday: 50 °F

Past Weeks' High & Low Weather Summary

 TemperatureHumidityPressure
High52 °F (Dec 9, 2:20 PM)100% (Dec 8, 9:20 PM)30.24 "Hg (Dec 8, 9:20 PM)
Low27 °F (Dec 13, 4:20 AM)61% (Dec 10, 10:20 AM)29.15 "Hg (Dec 12, 3:20 AM)
Average42 °F86%29.63 "Hg
* Reported Dec 7 5:20 AM — Dec 22 5:50 AM, Glasgow, Weather by CustomWeather, © 2014

Note: Actual official high and low records may vary slightly from our data, if they occured in-between our weather recording intervals... More about our weather records

Advertising

Glasgow weather history for previous 24 hours

 ConditionsComfort  
Time TempWeatherWind HumidityBarometerVisibility
5:50 AM
Dec 22
46 °FLight rain. Mostly cloudy.7 mph87%29.62 "HgN/A
5:20 AM46 °FLight rain. Passing clouds.8 mph87%29.62 "HgN/A
4:50 AM46 °FLight rain. Overcast.7 mph93%29.59 "HgN/A
4:20 AM46 °FLight rain. Passing clouds.8 mph93%29.59 "HgN/A
3:50 AM48 °FLight rain. Mostly cloudy.12 mph94%29.59 "HgN/A
3:20 AM50 °FLight rain. Mostly cloudy.10 mph94%29.59 "HgN/A
2:50 AM50 °FLight rain. Passing clouds.12 mph94%29.59 "Hg6 mi
2:20 AM50 °FLight rain. Passing clouds.14 mph94%29.59 "HgN/A
1:50 AM50 °FLight rain. Overcast.15 mph94%29.62 "HgN/A
1:20 AM50 °FLight rain. Mostly cloudy.15 mph94%29.62 "HgN/A
12:50 AM50 °FLight rain. Partly cloudy.14 mph94%29.62 "Hg5 mi
12:20 AM50 °FLight rain. Overcast.16 mph94%29.62 "HgN/A
11:50 PM
Dec 21
52 °FLight rain. Passing clouds.16 mph88%29.62 "HgN/A
11:20 PM52 °FLight rain. Mostly cloudy.14 mph94%29.62 "Hg6 mi
10:50 PM52 °FLight rain. Passing clouds.15 mph94%29.65 "HgN/A
10:20 PM52 °FLight rain. Partly cloudy.16 mph94%29.65 "HgN/A
9:20 PM52 °FLight rain. Mostly cloudy.12 mph100%29.65 "Hg4 mi
8:50 PM52 °FRain. Passing clouds.20 mph94%29.65 "Hg2 mi
8:20 PM52 °FLight rain. Overcast.20 mph94%29.65 "HgN/A
7:50 PM52 °FLight rain. Overcast.16 mph94%29.68 "Hg5 mi
7:20 PM52 °FLight rain. Passing clouds.17 mph94%29.68 "Hg4 mi
6:50 PM52 °FRain. Passing clouds.22 mph94%29.68 "Hg3 mi
6:20 PM52 °FLight rain. Overcast.22 mph94%29.68 "Hg3 mi
5:50 PM52 °FLight rain. Low clouds.20 mph94%29.68 "Hg4 mi
5:20 PM52 °FRain. Passing clouds.18 mph94%29.68 "Hg2 mi
4:50 PM52 °FRain. Mostly cloudy.21 mph94%29.71 "Hg1 mi
4:20 PM52 °FRain. Mostly cloudy.23 mph94%29.71 "Hg1 mi
3:50 PM52 °FLight rain. Passing clouds.23 mph94%29.71 "Hg1 mi
3:20 PM52 °FLight rain. Mostly cloudy.24 mph94%29.71 "Hg1 mi
2:50 PM52 °FLight rain. Mostly cloudy.23 mph94%29.74 "Hg1 mi
2:20 PM52 °FOvercast.25 mph94%29.74 "HgN/A
1:50 PM52 °FDrizzle. Low clouds.23 mph94%29.77 "Hg3 mi
1:20 PM52 °FDrizzle. Low clouds.22 mph94%29.77 "Hg2 mi
12:50 PM52 °FLight rain. Mostly cloudy.24 mph94%29.80 "Hg4 mi
12:20 PM52 °FLight rain. Low clouds.20 mph94%29.80 "HgN/A
11:50 AM50 °FLight rain. Low clouds.17 mph100%29.83 "Hg2 mi
11:20 AM50 °FLight rain. Partly sunny.18 mph94%29.86 "Hg2 mi
10:50 AM50 °FLight rain. Mostly cloudy.21 mph94%29.86 "Hg2 mi
10:20 AM50 °FLight rain. Low clouds.20 mph94%29.86 "Hg3 mi
9:50 AM48 °FLight rain. Mostly cloudy.23 mph94%29.86 "Hg2 mi
9:20 AM48 °FLight rain. Low clouds.23 mph94%29.89 "Hg4 mi
8:50 AM48 °FLight rain. Partly sunny.23 mph94%29.89 "Hg2 mi
8:20 AM48 °FLight rain. Overcast.23 mph94%29.92 "Hg3 mi
7:50 AM48 °FLight rain. Overcast.18 mph94%29.92 "Hg5 mi
7:20 AM48 °FLight rain. Overcast.24 mph87%29.92 "HgN/A
Weather by CustomWeather, © 2014

See weather overviewHow to use our weather pages